This is the latest recevied weather packets stored in our database for station/object W0AVQ. If no packets are shown the sender has not sent any weather packets the latest 10 day(s).
| Time | Temp. | Humidity | Pressure | Rain* | Wind** | Luminosity | Snow |
|---|---|---|---|---|---|---|---|
| 1777662958 | 17.78° C | 43% | 1019.5 hPa | 0 mm | - | 345 W/m² | - |
| 1777662655 | 17.78° C | 41% | 1019.5 hPa | 0 mm | - | 101 W/m² | - |
| 1777662351 | 17.78° C | 43% | 1019.4 hPa | 0 mm | - | 78 W/m² | - |
| 1777662046 | 18.33° C | 42% | 1019.5 hPa | 0 mm | - | 64 W/m² | - |
| 1777661743 | 17.78° C | 44% | 1019.7 hPa | 0 mm | - | 66 W/m² | - |
| 1777661439 | 17.78° C | 43% | 1019.8 hPa | 0 mm | - | 62 W/m² | - |
| 1777661135 | 17.22° C | 43% | 1019.6 hPa | 0 mm | - | 62 W/m² | - |
| 1777660835 | 17.22° C | 40% | 1019.7 hPa | 0 mm | - | 56 W/m² | - |
| 1777660532 | 17.22° C | 40% | 1019.7 hPa | 0 mm | - | 56 W/m² | - |
| 1777660228 | 17.22° C | 43% | 1019.6 hPa | 0 mm | - | 55 W/m² | - |
| 1777659925 | 16.67° C | 41% | 1019.7 hPa | 0 mm | - | 53 W/m² | - |
| 1777659622 | 17.22° C | 39% | 1019.4 hPa | 0 mm | - | 54 W/m² | - |
| 1777659319 | 17.22° C | 45% | 1019.4 hPa | 0 mm | - | 54 W/m² | - |
| 1777659016 | 16.67° C | 42% | 1019.7 hPa | 0 mm | - | 54 W/m² | - |
| 1777658714 | 17.22° C | 42% | 1019.5 hPa | 0 mm | - | 52 W/m² | - |
| 1777658409 | 17.22° C | 43% | 1019.5 hPa | 0 mm | - | 51 W/m² | - |
| 1777658106 | 16.67° C | 48% | 1019.6 hPa | 0 mm | - | 51 W/m² | - |
| 1777657803 | 16.67° C | 46% | 1019.5 hPa | 0 mm | - | 51 W/m² | - |
| 1777657501 | 16.67° C | 41% | 1019.3 hPa | 0 mm | - | 54 W/m² | - |
| 1777657198 | 17.22° C | 43% | 1019.6 hPa | 0 mm | - | 65 W/m² | - |
| 1777656895 | 16.67° C | 45% | 1019.4 hPa | 0 mm | - | 92 W/m² | - |
| 1777656591 | 16.67° C | 42% | 1019.9 hPa | 0 mm | - | 111 W/m² | - |
| 1777656287 | 16.67° C | 43% | 1019.8 hPa | 0 mm | - | 144 W/m² | - |
| 1777655983 | 16.67° C | 46% | 1019.9 hPa | 0 mm | - | 166 W/m² | - |
| 1777655679 | 16.67° C | 42% | 1019.9 hPa | 0 mm | - | 63 W/m² | - |
* Rain latest hour (hover to see other rain measurements)
** Current wind speed in m/s (hover to see current wind gust speed)